N6AMQ-1 Weather Reports


time (UTC)temp
F
wind
direction
speed
knots
gust
knots
rain 1hr
in
rain 24hr
in
rain mn
in
humidity
%
barometer
mb
20260506021350 62 202 0.0 0.0 0.00 0.01 0.01 68 1015.9
20260506021248 62 202 0.0 0.0 0.00 0.01 0.01 68 1015.9
20260506020748 62 158 0.0 0.0 0.00 0.01 0.01 69 1015.9
20260506020248 62 225 0.0 0.0 0.00 0.01 0.01 68 1015.9
20260506015748 62 270 0.0 0.0 0.00 0.01 0.01 69 1015.9
20260506015351 62 292 0.0 0.0 0.00 0.01 0.01 69 1015.9
20260506014748 62 270 0.0 0.0 0.00 0.01 0.01 69 1015.9
20260506014248 62 158 0.0 0.0 0.00 0.01 0.01 70 1015.9
20260506013748 63 315 0.0 0.0 0.00 0.01 0.01 69 1015.9
20260506013350 63 225 0.0 0.0 0.00 0.01 0.01 68 1015.9
20260506013248 63 180 0.0 0.0 0.00 0.01 0.01 68 1015.9
20260506011748 63 225 0.0 0.0 0.00 0.01 0.01 67 1015.9
20260506011350 63 202 0.0 0.0 0.00 0.01 0.01 68 1015.9
20260506011248 63 180 0.0 0.9 0.00 0.01 0.01 68 1015.9
20260506010748 63 270 0.0 0.0 0.00 0.01 0.01 68 1015.9
20260506010248 63 225 0.0 0.0 0.00 0.01 0.01 68 1015.9
20260506005748 63 158 0.0 0.0 0.00 0.01 0.01 68 1015.9
20260506005350 63 248 0.0 1.7 0.00 0.01 0.01 67 1015.9
20260506005248 63 315 0.0 0.0 0.00 0.01 0.01 68 1015.9
20260506004748 63 315 0.9 0.9 0.00 0.01 0.01 68 1015.9
20260506004248 63 158 0.9 0.0 0.00 0.01 0.01 67 1015.9
20260506003451 63 292 0.0 0.0 0.00 0.01 0.01 68 1015.9
20260506003350 63 292 0.0 0.0 0.00 0.01 0.01 68 1015.9
20260506003248 63 270 0.0 0.0 0.00 0.01 0.01 67 1015.9
20260506002748 63 22 0.9 0.0 0.00 0.01 0.01 68 1015.9
20260506002248 63 90 0.0 1.7 0.00 0.01 0.01 68 1015.9
20260506001748 63 45 0.0 0.0 0.00 0.01 0.01 68 1015.9
20260506001350 63 315 0.0 0.0 0.00 0.01 0.01 68 1015.9
20260506000748 63 180 0.0 1.7 0.00 0.01 0.01 68 1015.9
20260506000248 63 315 3.5 3.5 0.00 0.01 0.01 68 1015.9
20260505235748 63 270 2.6 3.5 0.00 0.01 0.01 67 1015.9
20260505235350 63 270 1.7 5.2 0.00 0.01 0.01 67 1015.9
20260505234748 63 270 1.7 1.7 0.00 0.01 0.01 66 1015.9
20260505234248 63 292 3.5 2.6 0.00 0.01 0.01 66 1015.9
20260505233748 64 270 3.5 1.7 0.00 0.01 0.01 66 1015.9
20260505233350 64 315 1.7 2.6 0.00 0.01 0.01 66 1015.9
20260505233248 64 225 0.0 0.0 0.00 0.01 0.01 66 1015.9
20260505232748 64 338 4.3 0.9 0.00 0.01 0.01 65 1015.9
20260505232248 64 292 1.7 2.6 0.00 0.01 0.01 66 1015.9
20260505231748 64 270 0.0 0.0 0.00 0.01 0.01 66 1015.9
20260505231350 64 292 0.0 2.6 0.00 0.01 0.01 66 1015.9
20260505231248 64 315 0.0 0.0 0.00 0.01 0.01 66 1015.9
20260505230748 64 315 2.6 1.7 0.00 0.01 0.01 65 1015.9
20260505225748 64 315 0.9 0.0 0.00 0.01 0.01 65 1015.9
20260505225350 65 270 3.5 7.0 0.00 0.01 0.01 65 1015.9
20260505225248 65 270 3.5 7.0 0.00 0.01 0.01 65 1015.9
20260505224748 65 315 2.6 1.7 0.00 0.01 0.01 64 1015.9
20260505223748 64 270 0.9 2.6 0.00 0.01 0.01 64 1015.9
20260505223351 64 270 1.7 1.7 0.00 0.01 0.01 64 1015.9
20260505223248 64 270 1.7 0.9 0.00 0.01 0.01 65 1015.9
20260505222748 64 338 0.9 0.9 0.00 0.01 0.01 64 1015.9
20260505222248 64 248 0.9 0.9 0.00 0.01 0.01 64 1015.9
20260505221748 64 270 1.7 0.0 0.00 0.01 0.01 64 1015.9
20260505221350 64 315 2.6 3.5 0.00 0.01 0.01 64 1015.9
20260505221248 64 292 1.7 3.5 0.00 0.01 0.01 65 1015.9
20260505220248 64 270 1.7 3.5 0.00 0.01 0.01 65 1015.9
20260505215748 64 292 1.7 0.0 0.00 0.01 0.01 65 1015.9
20260505215436 64 315 2.6 2.6 0.00 0.01 0.01 64 1015.9
20260505215350 64 315 2.6 2.6 0.00 0.01 0.01 64 1015.9
20260505215248 64 315 2.6 3.5 0.00 0.01 0.01 65 1015.9
20260505214248 63 225 1.7 0.9 0.00 0.01 0.01 65 1015.9
20260505213748 63 270 0.9 3.5 0.00 0.01 0.01 65 1015.9
20260505213350 63 338 2.6 2.6 0.00 0.01 0.01 64 1015.9
20260505213248 63 315 3.5 1.7 0.00 0.01 0.01 64 1015.9
20260505212748 63 22 0.0 0.9 0.00 0.01 0.01 66 1015.9
20260505212248 63 225 0.9 0.0 0.00 0.01 0.01 66 1015.9
20260505211748 63 270 2.6 7.8 0.00 0.01 0.01 65 1015.9
20260505211351 63 22 2.6 2.6 0.00 0.01 0.01 65 1015.9
20260505211248 63 270 2.6 0.9 0.00 0.01 0.01 65 1015.9
20260505210748 63 292 2.6 2.6 0.00 0.01 0.01 66 1015.9
20260505210248 63 292 1.7 2.6 0.00 0.01 0.01 65 1015.9
20260505205748 63 338 2.6 0.9 0.00 0.01 0.01 65 1015.9
20260505205350 63 112 1.7 0.0 0.00 0.01 0.01 65 1015.9
20260505204748 63 315 0.9 0.0 0.00 0.01 0.01 66 1015.9
20260505203350 63 315 1.7 0.0 0.00 0.01 0.01 67 1015.9
20260505203248 63 338 1.7 0.9 0.00 0.01 0.01 66 1015.9
20260505202749 63 270 1.7 0.0 0.00 0.01 0.01 67 1015.9
20260505202248 63 315 1.7 0.9 0.00 0.01 0.01 66 1016.9
20260505201748 63 315 0.0 0.0 0.00 0.01 0.01 66 1016.9
20260505201350 63 270 2.6 3.5 0.00 0.01 0.01 65 1016.9
20260505201248 63 292 1.7 3.5 0.00 0.01 0.01 66 1016.9
20260505200748 63 22 0.0 0.0 0.00 0.01 0.01 67 1016.9
20260505195350 62 112 0.9 0.0 0.00 0.01 0.01 68 1016.9
20260505195248 62 270 1.7 0.0 0.00 0.01 0.01 68 1016.9
20260505194748 62 270 2.6 2.6 0.00 0.01 0.01 68 1016.9
20260505194248 62 338 0.9 2.6 0.00 0.01 0.01 70 1016.9
20260505193748 62 338 1.7 0.9 0.00 0.01 0.01 71 1016.9
20260505193349 61 248 0.0 0.0 0.00 0.01 0.01 71 1016.9
20260505193248 61 225 0.0 0.0 0.00 0.01 0.01 71 1016.9
20260505192748 61 225 0.0 0.0 0.00 0.01 0.01 73 1016.9
20260505192248 61 270 1.7 0.9 0.00 0.01 0.01 72 1016.9
20260505191748 61 270 0.9 0.0 0.00 0.01 0.01 75 1016.9
20260505191350 61 225 1.7 1.7 0.00 0.01 0.01 74 1016.9
20260505191248 61 270 2.6 0.9 0.00 0.01 0.01 75 1016.9
20260505190748 60 270 0.9 0.0 0.00 0.01 0.01 75 1016.9
20260505185748 60 270 0.9 0.0 0.00 0.01 0.01 76 1016.9
20260505185350 60 315 1.7 0.9 0.00 0.01 0.01 76 1016.9
20260505185248 60 292 2.6 1.7 0.00 0.01 0.01 76 1016.9
20260505184248 60 315 0.9 4.3 0.00 0.01 0.01 78 1016.9
20260505183748 59 292 0.9 2.6 0.00 0.01 0.01 77 1016.9
20260505183350 59 270 0.9 0.0 0.00 0.01 0.01 78 1016.9
20260505183248 59 315 0.9 0.9 0.00 0.01 0.01 78 1016.9
20260505182748 59 292 1.7 0.0 0.00 0.01 0.01 78 1016.9
20260505181748 59 315 1.7 0.0 0.00 0.01 0.01 80 1016.9
20260505181350 58 292 0.0 0.0 0.00 0.01 0.01 80 1016.9
20260505181248 58 315 0.0 0.0 0.00 0.01 0.01 80 1016.9
20260505180748 58 270 0.0 0.0 0.00 0.01 0.01 80 1016.9
20260505180248 58 202 0.0 0.0 0.00 0.01 0.01 80 1016.9
20260505175748 58 315 1.7 0.0 0.00 0.01 0.01 80 1016.9
20260505175350 58 270 0.0 0.0 0.00 0.01 0.01 82 1015.9
20260505175248 58 292 0.0 0.0 0.00 0.01 0.01 82 1015.9
20260505174748 58 292 0.0 0.0 0.00 0.01 0.01 81 1015.9
20260505174248 57 270 0.0 0.0 0.00 0.01 0.01 83 1015.9
20260505173748 57 270 0.0 0.9 0.00 0.01 0.01 82 1015.9
20260505173350 57 270 0.0 2.6 0.00 0.01 0.01 83 1015.9
20260505173248 57 270 0.0 0.0 0.00 0.01 0.01 83 1015.9
20260505172748 57 292 0.0 0.0 0.00 0.01 0.01 83 1015.9
20260505172248 57 338 0.0 0.0 0.00 0.01 0.01 83 1015.9
20260505171350 57 0 0.0 0.0 0.00 0.01 0.01 84 1015.9
20260505171248 57 45 0.0 0.0 0.00 0.01 0.01 84 1015.9
20260505170748 56 292 0.0 0.0 0.00 0.01 0.01 84 1015.9
20260505170248 56 292 0.0 0.0 0.00 0.01 0.01 84 1015.9
20260505165350 56 315 0.0 0.0 0.00 0.01 0.01 85 1015.9
20260505165248 56 315 0.0 0.0 0.00 0.01 0.01 85 1015.9
20260505164748 56 270 0.0 0.0 0.00 0.01 0.01 86 1015.9
20260505164248 56 180 0.0 0.0 0.00 0.01 0.01 86 1015.9
20260505163748 56 180 0.0 0.0 0.00 0.01 0.01 87 1015.9
20260505163350 56 180 0.0 0.0 0.00 0.01 0.01 87 1015.9
20260505163248 56 180 0.0 0.0 0.00 0.01 0.01 87 1015.9
20260505162748 56 135 0.0 0.0 0.00 0.01 0.01 87 1015.9
20260505162248 55 202 0.0 0.0 0.00 0.01 0.01 87 1015.9
20260505161748 55 112 0.0 0.0 0.00 0.01 0.01 87 1015.9
20260505161350 55 90 0.0 0.0 0.00 0.01 0.01 87 1015.9
20260505161248 55 90 0.0 0.0 0.00 0.01 0.01 87 1015.9
20260505160748 55 112 0.0 0.0 0.00 0.01 0.01 87 1015.9
20260505160248 55 68 0.0 0.0 0.00 0.01 0.01 87 1015.9
20260505153350 54 90 0.0 0.0 0.00 0.01 0.01 88 1015.9
20260505152748 54 90 0.0 0.0 0.00 0.01 0.01 88 1015.9
20260505151748 54 68 0.0 0.0 0.00 0.01 0.01 88 1015.9
20260505151350 54 45 0.0 0.0 0.00 0.01 0.01 88 1015.9
20260505150748 54 135 0.0 0.0 0.00 0.01 0.01 88 1015.9
20260505150248 54 112 0.0 0.0 0.00 0.01 0.01 88 1015.9
20260505130248 54 202 0.0 0.0 0.00 0.01 0.01 88 1014.9
20260505124748 54 202 0.0 0.0 0.00 0.01 0.01 88 1014.9
20260505124248 54 202 0.0 0.0 0.00 0.01 0.01 88 1014.9
20260505123748 54 180 0.0 0.0 0.00 0.01 0.01 88 1014.9
20260505123350 54 112 0.0 0.0 0.00 0.01 0.01 87 1014.9
20260505123248 54 112 0.0 0.0 0.00 0.01 0.01 87 1014.9
20260505122248 54 180 0.0 0.0 0.00 0.01 0.01 88 1014.9
20260505121748 54 135 0.0 0.0 0.00 0.01 0.01 87 1014.9
20260505121350 54 135 0.0 0.0 0.00 0.01 0.01 87 1014.9
20260505120248 54 248 0.0 0.0 0.00 0.01 0.01 87 1014.9
20260505115748 54 225 0.0 0.0 0.00 0.01 0.01 87 1014.9
20260505115350 54 225 0.0 0.0 0.00 0.01 0.01 87 1014.9
20260505115248 54 225 0.0 0.0 0.00 0.01 0.01 87 1014.9
20260505114748 54 225 0.0 0.0 0.00 0.01 0.01 87 1014.9
20260505114248 54 248 0.0 0.0 0.00 0.01 0.01 87 1014.9
20260505113748 54 270 0.0 0.0 0.00 0.01 0.01 87 1014.9
20260505113350 54 270 0.0 0.0 0.00 0.01 0.01 87 1014.9
20260505113248 54 270 0.0 0.0 0.00 0.01 0.01 87 1014.9
20260505112748 54 270 0.0 0.0 0.00 0.01 0.01 87 1014.9
20260505112248 54 225 0.0 0.0 0.00 0.01 0.01 86 1014.9
20260505111748 54 225 0.0 0.0 0.00 0.01 0.01 86 1014.9
20260505111350 54 202 0.0 0.0 0.00 0.01 0.01 86 1014.9
20260505111248 54 202 0.0 0.0 0.00 0.01 0.01 85 1014.9
20260505110748 54 22 0.0 0.0 0.00 0.01 0.01 85 1014.9
20260505110248 54 0 0.0 0.0 0.00 0.01 0.01 85 1014.9
20260505101748 55 135 0.0 0.0 0.00 0.00 0.00 82 1014.9
20260505101349 55 135 0.0 0.0 0.00 0.00 0.00 81 1014.9
20260505101248 55 135 0.0 0.0 0.00 0.00 0.00 81 1014.9
20260505100748 55 202 0.0 0.0 0.00 0.00 0.00 80 1014.9
20260505100248 55 270 0.0 0.0 0.00 0.00 0.00 80 1014.9
20260505095748 55 248 0.0 0.0 0.00 0.00 0.00 78 1014.9
20260505095350 55 315 0.0 0.0 0.00 0.00 0.00 77 1014.9
20260505095248 55 270 0.0 0.0 0.00 0.00 0.00 77 1014.9
20260505094748 55 270 0.0 0.0 0.00 0.00 0.00 77 1014.9
20260505094248 55 270 0.0 0.0 0.00 0.00 0.00 78 1014.9
20260505093748 55 270 0.0 0.0 0.00 0.00 0.00 78 1014.9
20260505093350 55 270 0.0 0.0 0.00 0.00 0.00 78 1014.9
20260505093248 55 270 0.0 0.0 0.00 0.00 0.00 79 1014.9
20260505092748 55 270 0.0 0.0 0.00 0.00 0.00 79 1014.9
20260505092248 55 225 0.0 0.0 0.00 0.00 0.00 78 1015.9
20260505091351 55 248 0.0 0.0 0.00 0.00 0.00 77 1015.9
20260505091248 55 225 0.0 0.0 0.00 0.00 0.00 77 1015.9
20260505090248 55 248 0.0 0.0 0.00 0.00 0.00 77 1015.9
20260505085350 55 248 0.0 0.0 0.00 0.00 0.00 76 1015.9
20260505085248 55 248 0.0 0.0 0.00 0.00 0.00 76 1015.9
20260505084748 55 248 0.0 0.0 0.00 0.00 0.00 76 1015.9
20260505083748 55 248 0.0 0.0 0.00 0.00 0.00 76 1015.9
20260505083351 55 270 0.0 0.0 0.00 0.00 0.00 76 1015.9
20260505083248 55 270 0.0 0.0 0.00 0.00 0.00 76 1015.9
20260505082748 55 270 0.0 0.0 0.00 0.00 0.00 76 1015.9
20260505082248 55 270 0.0 0.0 0.00 0.00 0.00 76 1015.9
20260505081748 55 292 0.0 0.0 0.00 0.00 0.00 75 1015.9
20260505081350 55 270 0.0 0.0 0.00 0.00 0.00 75 1015.9
20260505080748 55 270 0.0 0.0 0.00 0.00 0.00 75 1015.9
20260505080248 55 292 0.9 0.0 0.00 0.00 0.00 76 1015.9
20260505075350 55 270 0.9 0.0 0.00 0.00 0.00 74 1015.9
20260505074748 55 270 0.0 1.7 0.00 0.00 0.00 74 1015.9
20260505074248 55 270 0.0 0.0 0.00 0.00 0.00 73 1015.9
20260505073748 56 270 0.0 0.0 0.00 0.00 0.00 72 1015.9
20260505073350 56 270 0.0 0.0 0.00 0.00 0.00 72 1015.9
20260505073248 56 315 0.0 0.0 0.00 0.00 0.00 72 1015.9
20260505072748 56 292 0.0 1.7 0.00 0.00 0.00 73 1015.9
20260505072248 56 270 0.0 1.7 0.00 0.00 0.00 74 1015.9
20260505071748 56 270 0.0 0.0 0.00 0.00 0.00 73 1015.9
20260505071350 56 338 0.9 0.9 0.00 0.00 0.00 73 1015.9
20260505071248 56 338 0.0 0.0 0.00 0.00 0.00 72 1015.9
20260505070748 56 315 0.0 0.0 0.00 0.00 0.00 73 1015.9
20260505065748 56 248 0.0 0.0 0.00 0.00 0.00 74 1015.9
20260505065350 56 270 0.0 0.0 0.00 0.00 0.00 74 1015.9
20260505065248 56 270 0.0 0.0 0.00 0.00 0.00 74 1015.9
20260505064748 56 248 0.0 0.0 0.00 0.00 0.00 74 1015.9
20260505064248 56 270 0.0 0.9 0.00 0.00 0.00 74 1015.9
20260505063748 56 270 0.0 0.0 0.00 0.00 0.00 74 1015.9
20260505063351 56 315 0.0 0.0 0.00 0.00 0.00 74 1015.9
20260505063248 56 292 0.0 0.0 0.00 0.00 0.00 74 1015.9
20260505062748 56 270 0.0 0.0 0.00 0.00 0.00 74 1015.9
20260505062248 56 292 0.0 0.0 0.00 0.00 0.00 74 1015.9
20260505061748 56 292 0.0 0.0 0.00 0.00 0.00 74 1015.9
20260505061350 56 292 0.9 0.0 0.00 0.00 0.00 74 1015.9
20260505061248 56 292 0.9 0.9 0.00 0.00 0.00 74 1015.9
20260505060248 56 270 0.0 0.0 0.00 0.00 0.00 75 1015.9
20260505055350 56 270 0.0 0.0 0.00 0.00 0.00 75 1015.9
20260505055248 56 248 0.0 0.0 0.00 0.00 0.00 75 1015.9
20260505054748 56 158 0.0 0.0 0.00 0.00 0.00 75 1015.9
20260505054248 56 315 0.0 1.7 0.00 0.00 0.00 74 1015.9
20260505053748 56 292 2.6 3.5 0.00 0.00 0.00 74 1015.9
20260505053350 56 338 0.0 1.7 0.00 0.00 0.00 75 1015.9
20260505052748 56 315 0.0 0.0 0.00 0.00 0.00 76 1015.9
20260505051748 57 315 0.9 5.2 0.00 0.00 0.00 75 1015.9
20260505051350 57 270 1.7 3.5 0.00 0.00 0.00 76 1015.9
20260505051248 57 270 0.9 3.5 0.00 0.00 0.00 76 1015.9
20260505050748 57 315 1.7 0.9 0.00 0.00 0.00 77 1015.9
20260505050248 57 248 2.6 0.9 0.00 0.00 0.00 77 1015.9
20260505041749 57 292 0.0 0.0 0.00 0.00 0.00 75 1015.9
20260505041351 57 292 0.0 0.0 0.00 0.00 0.00 75 1015.9
20260505040748 57 270 0.0 0.0 0.00 0.00 0.00 75 1014.9
20260505040248 57 292 0.0 0.0 0.00 0.00 0.00 75 1014.9
20260505035748 57 315 0.0 0.0 0.00 0.00 0.00 75 1014.9
20260505035350 57 292 0.0 0.0 0.00 0.00 0.00 75 1014.9
20260505035248 58 270 0.0 0.0 0.00 0.00 0.00 75 1014.9
20260505034248 58 315 0.0 0.0 0.00 0.00 0.00 75 1014.9
20260505033748 58 292 2.6 1.7 0.00 0.00 0.00 75 1014.9
20260505033350 58 315 2.6 6.1 0.00 0.00 0.00 75 1014.9
20260505032748 58 292 0.9 0.0 0.00 0.00 0.00 74 1014.9
20260505032248 58 315 0.0 0.0 0.00 0.00 0.00 73 1014.9
20260505031748 58 270 2.6 2.6 0.00 0.00 0.00 72 1014.9
20260505031350 58 315 0.0 0.0 0.00 0.00 0.00 72 1014.9
20260505031248 58 248 0.0 0.0 0.00 0.00 0.00 72 1014.9
20260505030748 58 270 0.0 0.0 0.00 0.00 0.00 72 1014.9
20260505030249 59 270 0.0 0.0 0.00 0.00 0.00 71 1014.9
20260505025748 59 248 0.0 0.0 0.00 0.00 0.00 70 1014.9
20260505025350 59 248 0.0 0.0 0.00 0.00 0.00 70 1014.9
20260505025248 59 270 0.0 0.0 0.00 0.00 0.00 70 1014.9
20260505024748 59 270 1.7 0.0 0.00 0.00 0.00 69 1014.9
20260505024248 59 292 0.9 1.7 0.00 0.00 0.00 68 1014.9
20260505023748 59 270 1.7 0.0 0.00 0.00 0.00 68 1014.9
20260505023248 60 338 3.5 0.0 0.00 0.00 0.00 67 1014.9
20260505022748 60 270 0.0 0.0 0.00 0.00 0.00 66 1014.9
20260505021748 60 270 0.0 0.0 0.00 0.00 0.00 65 1014.9